Regional Weather Roundup
Issued by NWS

Home | Current Version | Previous Version | Graphics & Text | Print | Product List | Glossary On
Versions: 1 2 3 4 5 6 7 8 9 10 11 12 13 14 15 16 17 18 19 20 21 22 23 24 25 26 27 28 29 30 31 32 33 34 35 36 37 38 39 40 41 42 43 44 45 46 47 48 49 50
000
ASUS44 KMEG 210810
RWRTN
TENNESSEE HOURLY STATE WEATHER ROUNDUP
NATIONAL WEATHER SERVICE MEMPHIS TN
300 AM CDT SUN SEP 21 2014

TNZ002-004-019-021-049-052-054-088>092-210900-
WEST TENNESSEE

CITY           SKY/WX    TMP DP  RH WIND       PRES   REMARKS
MEMPHIS INTL   CLEAR     73  66  78 CALM      30.00F
NWS MEMPHIS      N/A     69 N/A N/A MISG        N/A
JACKSON        CLEAR     69  66  90 S7        29.99F
DYERSBURG      CLEAR     72  59  64 CALM      29.99F
UNION CITY     CLEAR     70  66  88 SW5       29.96F
PARIS          CLEAR     66  64  94 SW6       29.98F
HUNTINGDON     CLEAR     69  64  84 CALM      29.99S
LEXINGTON      CLEAR     66  64  94 CALM      29.99S
SAVANNAH       CLEAR     66  66 100 CALM      30.01F
$$

TNZ008-025-027-028-033-062-065-066-210900-
NORTH MIDDLE TENNESSEE

CITY           SKY/WX    TMP DP  RH WIND       PRES   REMARKS
NASHVILLE      PTCLDY    67  64  90 S3        29.97F
DICKSON        CLEAR     70  64  83 SW7       29.98F
PORTLAND       PTCLDY    70  64  83 SW3       29.96F
CLARKSVILLE    CLEAR     70  66  87 SW5       29.96F
LEBANON        CLEAR     65  62  90 CALM      29.96F
SMYRNA         CLEAR     66  64  93 CALM      29.98F
MURFREESBORO   CLEAR     68  62  80 S5        29.98F
COOKEVILLE     CLEAR     63  61  94 SW5       30.00F
LIVINGSTON     CLEAR     65  61  87 SW6       30.00F
GALLATIN       PTCLDY    64  63  97 CALM      29.98F
CROSSVILLE     CLEAR     64  59  83 SW3       30.05F
$$

TNZ061-075-076-078-094-096-097-210900-
SOUTH MIDDLE TENNESSEE

CITY           SKY/WX    TMP DP  RH WIND       PRES   REMARKS
LEWISBURG      CLEAR     62  60  93 CALM      30.00F
FAYETTEVILLE   CLEAR     63  61  94 CALM      30.03F
WINCHESTER     CLEAR     61  61 100 CALM      30.03F
MCMINNVILLE    CLEAR     61  61 100 CALM      30.02F
COLUMBIA       CLEAR     64  64 100 CALM      29.98F
SHELBYVILLE    CLEAR     63  63 100 E3        30.01F
$$

TNZ017-018-042-046-047-210900-
NORTHEAST TENNESSEE

CITY           SKY/WX    TMP DP  RH WIND       PRES   REMARKS
TRI CITIES     MOCLDY    56  53  90 CALM      30.02S
ELIZABETHTON   SUNNY     54  52  94 CALM      30.03S
$$

TNZ012-013-036-069-073-074-210900-
CENTRAL EAST TENNESSEE

CITY           SKY/WX    TMP DP  RH WIND       PRES   REMARKS
KNOXVILLE      MOCLDY    65  61  87 W5        30.00F
OAK RIDGE      CLEAR     64  61  90 CALM      30.02F
GATLINBURG     MOSUNNY   59  57  94 CALM      30.01S
MORRISTOWN     MOSUNNY   61  59  94 CALM      30.02F
$$

TNZ083-085-099-210900-
SOUTHEAST TENNESSEE

CITY           SKY/WX    TMP DP  RH WIND       PRES   REMARKS
CHATTANOOGA    CLEAR     65  61  87 CALM      30.02F
$$

SKY/WX REPORTED AS FAIR MEANS FEW OR NO CLOUDS BELOW
12 THOUSAND FEET.



USA.gov is the U.S. government's official web portal to all federal, state and local government web resources and services.